Visibility
15.0 15.0 15.0 14.9 5.0 4.9 15.0 15.0 15.0 15.0 15.0 15.0 15.0 15.0 15.0 15.0 9.2 15.0 6.4 13.5 7.8 15.0 15.0 4.7 7.0 15.0 15.0 15.0 15.0 15.0 15.0 9.4 15.0 15.0 15.0 11.6 15.0 15.0 15.0 15.0 15.0 15.0 15.0
15.0 15.0 15.0 15.0 15.0 15.0 15.0 15.0 15.0 15.0 15.0 15.0 15.0 15.0 15.0 15.0 7.3 15.0 14.3 15.0 15.0 15.0 4.2 3.3 5.7 15.0 4.8 11.5 9.3 12.5 15.0 15.0 7.9 13.5 13.6 15.0 15.0 15.0 15.0 10.0 15.0 15.0 15.0
15.0 15.0 15.0 15.0 15.0 15.0 15.0 15.0 15.0 15.0 15.0 12.3 2.8 13.6 15.0 15.0 15.0 15.0 15.0 15.0 15.0 15.0 14.2 5.2 13.8 6.5 5.4 15.0 8.6 13.2 15.0 15.0 4.5 15.0 15.0 15.0 14.3 15.0 13.1 15.0 15.0 15.0 15.0
15.0 15.0 15.0 15.0 15.0 15.0 15.0 15.0 15.0 15.0 15.0 15.0 15.0 5.3 4.6 15.0 15.0 15.0 15.0 15.0 15.0 15.0 15.0 15.0 15.0 15.0 15.0 15.0 12.1 12.6 8.2 15.0 4.5 15.0 15.0 15.0 15.0 15.0 15.0 15.0 15.0 15.0 15.0
15.0 15.0 15.0 15.0 15.0 15.0 15.0 15.0 15.0 15.0 15.0 5.0 15.0 14.5 5.7 15.0 15.0 15.0 15.0 15.0 15.0 15.0 15.0 15.0 15.0 15.0 15.0 12.5 10.4 2.7 14.8 6.0 11.6 15.0 12.1 15.0 15.0 15.0 15.0 15.0 15.0 15.0 15.0
15.0 15.0 15.0 3.9 15.0 15.0 15.0 15.0 15.0 15.0 5.7 2.3 15.0 14.9 2.6 3.8 15.0 15.0 15.0 15.0 14.8 15.0 15.0 14.8 15.0 15.0 15.0 15.0 15.0 15.0 15.0 14.9 7.8 15.0 15.0 15.0 14.9 15.0 15.0 15.0 15.0 15.0 15.0
15.0 15.0 15.0 15.0 15.0 15.0 15.0 15.0 15.0 10.2 14.1 15.0 9.5 11.7 15.0 15.0 15.0 6.3 14.5 15.0 11.9 5.4 4.8 11.6 13.1 15.0 15.0 8.0 15.0 10.2 15.0 15.0 15.0 15.0 15.0 15.0 10.2 15.0 15.0 15.0 15.0 15.0 15.0
15.0 15.0 15.0 15.0 15.0 15.0 15.0 15.0 15.0 15.0 15.0 15.0 10.1 9.6 9.9 10.6 15.0 15.0 8.2 15.0 15.0 15.0 14.7 4.3 4.2 3.8 3.7 7.0 9.4 15.0 15.0 15.0 15.0 15.0 15.0 15.0 15.0 14.7 15.0 15.0 15.0 15.0 15.0
15.0 15.0 15.0 15.0 15.0 15.0 15.0 15.0 15.0 15.0 15.0 15.0 15.0 15.0 15.0 15.0 2.1 15.0 0.1 15.0 15.0 15.0 15.0 15.0 15.0 14.5 4.3 2.1 8.6 6.6 2.3 15.0 3.5 15.0 15.0 15.0 15.0 15.0 15.0 15.0 15.0 15.0 15.0
15.0 15.0 15.0 15.0 15.0 15.0 15.0 15.0 15.0 15.0 15.0 15.0 15.0 15.0 15.0 15.0 15.0 15.0 15.0 15.0 15.0 15.0 15.0 15.0 15.0 15.0 15.0 3.2 9.0 3.9 14.2 15.0 7.0 2.2 15.0 15.0 15.0 15.0 15.0 15.0 15.0 15.0 15.0
15.0 15.0 15.0 15.0 15.0 15.0 11.0 12.5 15.0 15.0 15.0 15.0 15.0 15.0 15.0 15.0 15.0 15.0 15.0 15.0 15.0 15.0 15.0 15.0 15.0 15.0 15.0 15.0 11.8 5.4 5.2 7.9 3.1 2.5 15.0 15.0 15.0 15.0 15.0 15.0 15.0 15.0 15.0
15.0 15.0 15.0 15.0 15.0 15.0 15.0 15.0 13.7 15.0 15.0 15.0 15.0 15.0 15.0 15.0 15.0 9.2 15.0 1.0 15.0 15.0 15.0 15.0 15.0 0.0 0.1 15.0 0.3 15.0 7.7 0.1 4.6 3.6 15.0 8.4 15.0 15.0 15.0 15.0 15.0 15.0 15.0
15.0 15.0 15.0 15.0 15.0 15.0 15.0 15.0 14.6 15.0 15.0 15.0 15.0 15.0 15.0 15.0 15.0 15.0 15.0 15.0 1.3 1.7 15.0 1.5 0.0 0.0 0.0 0.0 0.0 0.0 0.1 4.8 5.1 3.3 14.0 9.1 15.0 15.0 15.0 15.0 15.0 15.0 15.0
15.0 15.0 15.0 15.0 15.0 15.0 15.0 15.0 15.0 15.0 15.0 15.0 15.0 15.0 15.0 15.0 15.0 15.0 15.0 13.4 0.3 2.5 15.0 5.2 12.6 0.0 0.0 0.0 0.0 0.2 3.8 5.1 5.4 4.8 13.4 5.4 15.0 15.0 15.0 15.0 15.0 15.0 15.0
15.0 15.0 15.0 15.0 15.0 15.0 15.0 15.0 15.0 15.0 15.0 15.0 15.0 15.0 15.0 15.0 12.4 3.6 0.2 9.6 15.0 1.1 6.0 15.0 15.0 15.0 15.0 0.1 0.8 0.1 0.5 2.6 4.7 13.9 8.3 15.0 15.0 15.0 15.0 15.0 15.0 15.0 15.0
15.0 15.0 15.0 15.0 15.0 15.0 15.0 15.0 15.0 15.0 15.0 15.0 15.0 15.0 15.0 15.0 15.0 0.1 4.6 13.7 0.0 0.0 10.5 15.0 15.0 15.0 15.0 11.8 5.4 8.7 14.8 11.1 15.0 12.2 14.9 15.0 15.0 15.0 15.0 15.0 15.0 15.0 15.0
15.0 15.0 15.0 15.0 15.0 15.0 15.0 15.0 15.0 15.0 15.0 15.0 15.0 15.0 15.0 15.0 0.3 0.0 0.0 0.0 0.0 0.0 13.5 15.0 15.0 15.0 15.0 15.0 15.0 15.0 15.0 15.0 15.0 15.0 14.8 15.0 10.5 15.0 15.0 15.0 15.0 15.0 15.0
15.0 15.0 15.0 15.0 15.0 15.0 15.0 15.0 15.0 15.0 15.0 15.0 15.0 15.0 1.5 0.6 0.1 0.1 0.0 0.5 5.3 3.5 14.8 15.0 15.0 15.0 15.0 15.0 15.0 15.0 15.0 15.0 15.0 15.0 14.9 12.4 14.9 15.0 15.0 15.0 15.0 15.0 15.0
15.0 15.0 15.0 15.0 15.0 15.0 15.0 15.0 15.0 15.0 15.0 15.0 15.0 15.0 2.7 0.0 0.0 0.0 0.0 9.4 15.0 15.0 15.0 15.0 15.0 15.0 15.0 15.0 15.0 15.0 15.0 15.0 15.0 15.0 3.3 12.2 15.0 15.0 15.0 15.0 15.0 15.0 15.0
15.0 15.0 15.0 15.0 15.0 15.0 15.0 15.0 15.0 15.0 11.1 12.7 11.1 10.8 15.0 11.6 11.6 13.7 11.6 15.0 15.0 15.0 15.0 15.0 15.0 15.0 15.0 15.0 15.0 15.0 15.0 11.8 15.0 15.0 9.8 11.6 15.0 15.0 15.0 15.0 15.0 15.0 15.0
15.0 15.0 15.0 15.0 12.3 15.0 15.0 15.0 15.0 15.0 15.0 15.0 15.0 15.0 2.8 15.0 15.0 6.3 7.1 6.9 15.0 15.0 15.0 15.0 11.9 14.6 15.0 15.0 15.0 13.1 15.0 15.0 15.0 10.2 9.7 9.4 14.8 15.0 15.0 15.0 15.0 15.0 15.0
15.0 15.0 15.0 15.0 13.0 15.0 15.0 15.0 15.0 15.0 15.0 15.0 15.0 15.0 9.2 14.9 12.3 15.0 15.0 15.0 15.0 15.0 15.0 15.0 10.9 11.0 9.2 15.0 15.0 15.0 15.0 15.0 10.6 15.0 4.5 6.1 15.0 15.0 15.0 15.0 15.0 15.0 15.0
15.0 15.0 15.0 15.0 15.0 15.0 15.0 15.0 15.0 15.0 15.0 15.0 15.0 15.0 15.0 12.6 12.2 15.0 11.0 15.0 15.0 15.0 15.0 15.0 12.7 15.0 15.0 9.3 12.6 15.0 15.0 15.0 15.0 15.0 15.0 15.0 10.7 15.0 15.0 15.0 15.0 15.0 15.0
15.0 15.0 15.0 15.0 15.0 15.0 15.0 15.0 15.0 15.0 15.0 15.0 15.0 15.0 6.7 14.5 7.6 5.5 15.0 15.0 15.0 15.0 15.0 15.0 15.0 15.0 5.3 15.0 9.8 6.5 15.0 15.0 15.0 15.0 15.0 15.0 4.6 2.5 15.0 15.0 15.0 15.0 15.0
15.0 15.0 15.0 15.0 15.0 15.0 15.0 15.0 15.0 15.0 15.0 15.0 15.0 15.0 15.0 5.5 6.5 6.8 14.3 13.1 10.6 15.0 15.0 15.0 15.0 15.0 15.0 15.0 14.3 3.6 13.4 14.6 15.0 15.0 15.0 15.0 15.0 15.0 15.0 15.0 15.0 15.0 15.0
15.0 15.0 15.0 15.0 15.0 15.0 15.0 15.0 15.0 15.0 15.0 15.0 14.9 15.0 6.9 4.7 4.1 5.9 11.1 15.0 11.8 15.0 15.0 11.2 13.9 15.0 15.0 15.0 15.0 3.4 0.7 13.1 15.0 10.5 8.1 15.0 8.4 15.0 15.0 15.0 15.0 15.0 15.0